TimeEDT,TemperatureF,Dew PointF,Humidity,Sea Level PressureIn,VisibilityMPH,Wind Direction,Wind SpeedMPH,Gust SpeedMPH,PrecipitationIn,Events,Conditions,WindDirDegrees,DateUTC
12:15 AM,40.5,27.7,60,29.89,10.0,West,10.4,26.5,N/A,,Scattered Clouds,280,2013-03-21 04:15:00
12:35 AM,38.7,27.5,64,29.89,10.0,West,8.1,-,N/A,,Overcast,270,2013-03-21 04:35:00
12:55 AM,38.1,21.7,52,29.89,10.0,West,6.9,-,N/A,,Scattered Clouds,280,2013-03-21 04:55:00
1:15 AM,37.8,16.0,41,29.88,10.0,WNW,13.8,23.0,N/A,,Clear,290,2013-03-21 05:15:00
1:35 AM,37.6,14.9,40,29.87,10.0,West,3.5,16.1,N/A,,Clear,280,2013-03-21 05:35:00
2:15 AM,35.6,14.4,42,29.86,10.0,NW,4.6,-,N/A,,Clear,310,2013-03-21 06:15:00
2:35 AM,35.1,13.3,41,29.86,10.0,NW,5.8,-,N/A,,Clear,310,2013-03-21 06:35:00
2:55 AM,35.8,8.1,32,29.85,10.0,North,4.6,-,N/A,,Clear,360,2013-03-21 06:55:00
3:15 AM,34.9,6.1,30,29.85,10.0,NW,6.9,-,N/A,,Clear,320,2013-03-21 07:15:00
3:35 AM,34.0,6.1,31,29.85,10.0,NW,5.8,-,N/A,,Clear,310,2013-03-21 07:35:00
3:55 AM,33.4,1.8,26,29.86,10.0,NW,10.4,17.3,N/A,,Clear,320,2013-03-21 07:55:00
4:15 AM,32.5,1.4,27,29.85,10.0,NW,8.1,18.4,N/A,,Clear,310,2013-03-21 08:15:00
4:35 AM,32.2,2.1,28,29.84,10.0,WNW,11.5,20.7,N/A,,Clear,300,2013-03-21 08:35:00
4:55 AM,32.0,1.9,28,29.85,10.0,NW,10.4,18.4,N/A,,Clear,320,2013-03-21 08:55:00
5:15 AM,31.3,3.2,30,29.83,10.0,NW,10.4,-,N/A,,Clear,310,2013-03-21 09:15:00
5:35 AM,31.8,0.5,26,29.84,10.0,NW,10.4,18.4,N/A,,Clear,320,2013-03-21 09:35:00
5:55 AM,31.1,0.5,27,29.85,10.0,NW,13.8,20.7,N/A,,Clear,310,2013-03-21 09:55:00
6:15 AM,30.9,0.5,27,29.86,10.0,NW,11.5,19.6,N/A,,Clear,320,2013-03-21 10:15:00
6:35 AM,30.2,1.9,30,29.85,10.0,NW,10.4,16.1,N/A,,Clear,320,2013-03-21 10:35:00
6:55 AM,29.8,2.1,31,29.86,10.0,NW,11.5,16.1,N/A,,Clear,310,2013-03-21 10:55:00
7:15 AM,29.8,2.3,31,29.87,10.0,NW,12.7,20.7,N/A,,Clear,310,2013-03-21 11:15:00
7:35 AM,29.5,3.4,33,29.88,10.0,NW,12.7,17.3,N/A,,Clear,310,2013-03-21 11:35:00
7:55 AM,29.3,3.9,34,29.88,10.0,NW,10.4,-,N/A,,Clear,310,2013-03-21 11:55:00
8:15 AM,29.8,5.0,35,29.88,10.0,WNW,8.1,16.1,N/A,,Clear,290,2013-03-21 12:15:00
8:35 AM,30.2,4.8,34,29.88,10.0,WNW,8.1,-,N/A,,Clear,290,2013-03-21 12:35:00
8:55 AM,30.7,5.7,35,29.89,10.0,WNW,5.8,-,N/A,,Clear,290,2013-03-21 12:55:00
9:15 AM,30.9,5.9,35,29.89,10.0,WNW,10.4,-,N/A,,Clear,300,2013-03-21 13:15:00
9:35 AM,31.8,5.9,34,29.90,10.0,West,4.6,-,N/A,,Clear,280,2013-03-21 13:35:00
9:55 AM,32.0,5.7,33,29.90,10.0,West,5.8,-,N/A,,Clear,270,2013-03-21 13:55:00
10:15 AM,32.2,5.7,33,29.90,10.0,West,4.6,-,N/A,,Clear,270,2013-03-21 14:15:00
10:35 AM,33.1,5.4,31,29.90,10.0,WNW,5.8,-,N/A,,Clear,290,2013-03-21 14:35:00
10:55 AM,34.0,5.4,30,29.90,10.0,West,9.2,-,N/A,,Clear,270,2013-03-21 14:55:00
11:15 AM,34.7,4.5,28,29.89,10.0,WNW,10.4,16.1,N/A,,Clear,290,2013-03-21 15:15:00
11:35 AM,35.2,4.5,28,29.90,10.0,NW,6.9,17.3,N/A,,Clear,320,2013-03-21 15:35:00
11:55 AM,36.5,7.3,30,29.89,10.0,NNW,9.2,-,N/A,,Clear,340,2013-03-21 15:55:00
12:15 PM,35.8,4.5,27,29.90,10.0,NW,9.2,-,N/A,,Clear,310,2013-03-21 16:15:00
12:35 PM,36.7,6.6,29,29.89,10.0,WNW,11.5,16.1,N/A,,Clear,290,2013-03-21 16:35:00
12:55 PM,37.6,6.1,27,29.89,10.0,NNW,9.2,-,N/A,,Clear,340,2013-03-21 16:55:00
1:15 PM,38.7,7.3,27,29.89,10.0,SW,4.6,-,N/A,,Scattered Clouds,230,2013-03-21 17:15:00
1:35 PM,39.2,5.7,25,29.89,10.0,NW,10.4,17.3,N/A,,Scattered Clouds,310,2013-03-21 17:35:00
1:55 PM,39.7,6.6,25,29.89,10.0,WNW,8.1,17.3,N/A,,Scattered Clouds,290,2013-03-21 17:55:00
2:15 PM,40.1,7.0,25,29.88,10.0,NNW,8.1,18.4,N/A,,Scattered Clouds,330,2013-03-21 18:15:00
2:35 PM,39.7,6.6,25,29.88,10.0,North,8.1,-,N/A,,Scattered Clouds,360,2013-03-21 18:35:00
2:55 PM,39.7,6.3,25,29.88,10.0,NNW,10.4,19.6,N/A,,Scattered Clouds,330,2013-03-21 18:55:00
3:15 PM,40.3,7.2,25,29.88,10.0,NNW,9.2,18.4,N/A,,Scattered Clouds,330,2013-03-21 19:15:00
3:35 PM,40.1,7.9,27,29.89,10.0,West,13.8,20.7,N/A,,Scattered Clouds,280,2013-03-21 19:35:00
3:55 PM,39.6,7.5,27,29.89,10.0,West,9.2,18.4,N/A,,Scattered Clouds,260,2013-03-21 19:55:00
4:15 PM,39.6,7.7,27,29.89,10.0,WSW,10.4,18.4,N/A,,Scattered Clouds,250,2013-03-21 20:15:00
4:35 PM,39.2,7.7,27,29.90,10.0,West,12.7,20.7,N/A,,Scattered Clouds,260,2013-03-21 20:35:00
4:55 PM,39.7,8.2,27,29.90,10.0,WSW,13.8,20.7,N/A,,Scattered Clouds,250,2013-03-21 20:55:00
5:15 PM,39.2,7.7,27,29.91,10.0,WNW,16.1,20.7,N/A,,Clear,290,2013-03-21 21:15:00
5:35 PM,38.7,7.7,28,29.90,10.0,West,10.4,16.1,N/A,,Clear,270,2013-03-21 21:35:00
5:55 PM,39.0,7.7,27,29.90,10.0,West,11.5,17.3,N/A,,Clear,270,2013-03-21 21:55:00
6:15 PM,38.5,7.3,28,29.90,10.0,West,12.7,16.1,N/A,,Clear,280,2013-03-21 22:15:00
6:35 PM,38.3,7.3,28,29.91,10.0,West,11.5,16.1,N/A,,Clear,280,2013-03-21 22:35:00
6:55 PM,37.9,7.5,28,29.91,10.0,NW,6.9,-,N/A,,Clear,310,2013-03-21 22:55:00
7:15 PM,37.4,7.5,29,29.92,10.0,West,8.1,-,N/A,,Clear,270,2013-03-21 23:15:00
7:35 PM,36.5,7.7,30,29.92,10.0,WNW,5.8,-,N/A,,Clear,300,2013-03-21 23:35:00
7:55 PM,35.6,7.7,31,29.93,10.0,WNW,4.6,-,N/A,,Clear,300,2013-03-21 23:55:00
8:15 PM,34.7,7.9,33,29.93,10.0,WNW,4.6,-,N/A,,Clear,300,2013-03-22 00:15:00
8:35 PM,34.2,7.7,33,29.94,10.0,WNW,4.6,-,N/A,,Clear,300,2013-03-22 00:35:00
8:55 PM,31.5,10.4,42,29.95,10.0,Calm,Calm,-,N/A,,Clear,0,2013-03-22 00:55:00
9:15 PM,28.4,13.6,54,29.96,10.0,Calm,Calm,-,N/A,,Clear,0,2013-03-22 01:15:00
9:35 PM,29.8,11.5,46,29.96,10.0,Calm,Calm,-,N/A,,Clear,0,2013-03-22 01:35:00
9:55 PM,32.0,9.7,39,29.96,10.0,NNW,4.6,-,N/A,,Clear,330,2013-03-22 01:55:00
10:15 PM,32.5,8.6,37,29.97,10.0,NW,6.9,-,N/A,,Clear,320,2013-03-22 02:15:00
10:35 PM,32.0,9.1,38,29.97,10.0,Calm,Calm,-,N/A,,Clear,0,2013-03-22 02:35:00
10:55 PM,29.5,9.5,43,29.99,10.0,Calm,Calm,-,N/A,,Clear,0,2013-03-22 02:55:00
11:15 PM,28.8,10.4,46,30.00,10.0,North,3.5,-,N/A,,Clear,350,2013-03-22 03:15:00
11:35 PM,30.6,10.0,42,30.00,10.0,NNW,5.8,-,N/A,,Clear,340,2013-03-22 03:35:00
11:55 PM,30.9,9.5,41,30.00,10.0,North,4.6,-,N/A,,Clear,360,2013-03-22 03:55:00